Salmon, ID

10:53 AM MST on February 22, 2017 (GMT -0700)
Lemhi County

Weather History for KSMN - May, 2014

Change the Weather History Date:

Tuesday, May 13, 2014

  Actual Average Record
Temperature  
Mean Temperature 46 °F -  
Max Temperature 64 °F 62 °F 88 °F (1993)
Min Temperature 28 °F 35 °F 24 °F (2008)
Degree Days  
Heating Degree Days 19    
Moisture  
Dew Point 27 °F    
Average Humidity 52    
Maximum Humidity 93    
Minimum Humidity 18    
Precipitation  
Precipitation 0.00 in - - ()
Sea Level Pressure  
Sea Level Pressure 30.41 in    
Wind  
Wind Speed 1 mph (NNE)    
Max Wind Speed 7 mph    
Max Gust Speed -    
Visibility 10 miles    
Events      
Averages and records for this station are not official NWS values.
T = Trace of Precipitation, MM = Missing Value Source: NWS Daily Summary

Daily Weather History Graph

Daily Weather History Graph

Search for Another Location

Airport or City:

Trip Planner

Search our weather history database for the weather conditions in past years. The results will help you decide how hot, cold, wet, or windy it might be!

Date:

Astronomy

May. 13, 2014 Rise Set
Actual Time 6:08 AM MDT 8:56 PM MDT
Civil Twilight 5:34 AM MDT 9:30 PM MDT
Nautical Twilight 4:51 AM MDT 10:13 PM MDT
Astronomical Twilight 4:00 AM MDT 11:04 PM MDT
Moon 7:58 PM MDT (5/13) 5:32 AM MDT (5/13)
Length of Visible Light 15h 55m
Length of Day
14h 47m
Waxing Gibbous, 99% of the Moon is Illuminated
May 13
Waxing Gibbous
May 14
Full
May 21
Last Quarter
May 28
New
Jun 5
First Quarter

Hourly Weather History & Observations

Time (MDT) Temp. Windchill Dew Point Humidity Pressure Visibility Wind Dir Wind Speed Gust Speed Precip Events Conditions
12:15 AM 39.2 °F - 30.2 °F 70% 30.43 in 10.0 mi Calm Calm - N/A   Clear
12:35 AM 37.4 °F - 30.2 °F 75% 30.43 in 10.0 mi Calm Calm - N/A   Clear
12:55 AM 37.4 °F - 28.4 °F 70% 30.44 in 10.0 mi Calm Calm - N/A   Clear
1:35 AM 35.6 °F - 28.4 °F 75% 30.45 in 10.0 mi Calm Calm - N/A   Clear
1:55 AM 35.6 °F - 28.4 °F 75% 30.45 in 10.0 mi Calm Calm - N/A   Clear
2:15 AM 33.8 °F - 26.6 °F 75% 30.45 in 10.0 mi Calm Calm - N/A   Clear
2:35 AM 33.8 °F - 28.4 °F 81% 30.45 in 10.0 mi Calm Calm - N/A   Clear
2:55 AM 33.8 °F - 30.2 °F 87% 30.46 in 10.0 mi Calm Calm - N/A   Clear
3:15 AM 33.8 °F - 28.4 °F 81% 30.46 in 10.0 mi Calm Calm - N/A   Clear
3:35 AM 32.0 °F - 26.6 °F 80% 30.46 in 10.0 mi Calm Calm - N/A   Clear
3:55 AM 30.2 °F - 26.6 °F 86% 30.47 in 10.0 mi Calm Calm - N/A   Clear
4:15 AM 33.8 °F - 26.6 °F 75% 30.48 in 10.0 mi Calm Calm - N/A   Clear
4:35 AM 30.2 °F - 26.6 °F 86% 30.48 in 10.0 mi Calm Calm - N/A   Clear
4:55 AM 30.2 °F - 28.4 °F 93% 30.48 in 10.0 mi Calm Calm - N/A   Clear
5:15 AM 30.2 °F - 28.4 °F 93% 30.48 in 10.0 mi Calm Calm - N/A   Clear
5:35 AM 30.2 °F - 26.6 °F 86% 30.48 in 10.0 mi Calm Calm - N/A   Clear
5:55 AM 30.2 °F - 26.6 °F 86% 30.49 in 10.0 mi Calm Calm - N/A   Clear
6:15 AM 28.4 °F - 26.6 °F 93% 30.49 in 10.0 mi Calm Calm - N/A   Clear
7:15 AM 30.2 °F - 28.4 °F 93% 30.51 in 10.0 mi Calm Calm - N/A   Clear
7:35 AM 33.8 °F - 30.2 °F 87% 30.51 in 10.0 mi Calm Calm - N/A   Clear
7:55 AM 35.6 °F - 30.2 °F 81% 30.52 in 10.0 mi Calm Calm - N/A   Clear
8:15 AM 35.6 °F - 28.4 °F 75% 30.52 in 10.0 mi Calm Calm - N/A   Clear
8:55 AM 37.4 °F - 28.4 °F 70% 30.51 in 10.0 mi Calm Calm - N/A   Clear
10:35 AM 46.4 °F - 28.4 °F 50% 30.48 in 10.0 mi Calm Calm - N/A   Clear
10:55 AM 46.4 °F 45.2 °F 26.6 °F 46% 30.47 in 10.0 mi East 3.5 mph - N/A   Clear
11:35 AM 50.0 °F - 28.4 °F 43% 30.46 in 10.0 mi Calm Calm - N/A   Clear
11:55 AM 51.8 °F - 28.4 °F 41% 30.45 in 10.0 mi NW 3.5 mph - N/A   Clear
12:15 PM 53.6 °F - 30.2 °F 41% 30.45 in 10.0 mi NW 3.5 mph - N/A   Clear
12:35 PM 53.6 °F - 26.6 °F 35% 30.44 in 10.0 mi North 5.8 mph - N/A   Clear
12:55 PM 55.4 °F - 28.4 °F 36% 30.43 in 10.0 mi NNW 4.6 mph - N/A   Clear
1:15 PM 57.2 °F - 28.4 °F 33% 30.42 in 10.0 mi NNW 5.8 mph - N/A   Clear
1:35 PM 57.2 °F - 28.4 °F 33% 30.41 in 10.0 mi NNW 4.6 mph - N/A   Clear
1:55 PM 59.0 °F - 28.4 °F 31% 30.41 in 10.0 mi NNW 5.8 mph - N/A   Clear
2:15 PM 59.0 °F - 28.4 °F 31% 30.40 in 10.0 mi Calm Calm - N/A   Clear
2:35 PM 60.8 °F - 26.6 °F 27% 30.40 in 10.0 mi NNW 6.9 mph - N/A   Clear
2:55 PM 60.8 °F - 26.6 °F 27% 30.39 in 10.0 mi Calm Calm - N/A   Clear
3:15 PM 60.8 °F - 26.6 °F 27% 30.39 in 10.0 mi Calm Calm - N/A   Clear
3:35 PM 60.8 °F - 26.6 °F 27% 30.38 in 10.0 mi Calm Calm - N/A   Clear
3:55 PM 62.6 °F - 26.6 °F 26% 30.37 in 10.0 mi East 3.5 mph - N/A   Clear
4:15 PM 62.6 °F - 23.0 °F 22% 30.36 in 10.0 mi Calm Calm - N/A   Clear
4:35 PM 62.6 °F - 24.8 °F 24% 30.35 in 10.0 mi North 3.5 mph - N/A   Clear
4:55 PM 64.4 °F - 19.4 °F 18% 30.34 in 10.0 mi Calm Calm - N/A   Clear
5:15 PM 64.4 °F - 23.0 °F 21% 30.34 in 10.0 mi North 4.6 mph - N/A   Clear
5:35 PM 64.4 °F - 21.2 °F 19% 30.34 in 10.0 mi Calm Calm - N/A   Clear
6:15 PM 62.6 °F - 24.8 °F 24% 30.33 in 10.0 mi Calm Calm - N/A   Scattered Clouds
6:35 PM 64.4 °F - 19.4 °F 18% 30.32 in 10.0 mi NNW 4.6 mph - N/A   Mostly Cloudy
6:55 PM 64.4 °F - 21.2 °F 19% 30.32 in 10.0 mi Calm Calm - N/A   Scattered Clouds
7:15 PM 64.4 °F - 24.8 °F 22% 30.31 in 10.0 mi NNE 4.6 mph - N/A   Partly Cloudy
7:35 PM 64.4 °F - 21.2 °F 19% 30.32 in 10.0 mi NE 3.5 mph - N/A   Clear
7:55 PM 64.4 °F - 28.4 °F 26% 30.32 in 10.0 mi NNE 3.5 mph - N/A   Clear
8:15 PM 62.6 °F - 19.4 °F 19% 30.32 in 10.0 mi Calm Calm - N/A   Clear
8:55 PM 53.6 °F - 33.8 °F 47% 30.33 in 10.0 mi Calm Calm - N/A   Clear
9:15 PM 53.6 °F - 33.8 °F 47% 30.34 in 10.0 mi Calm Calm - N/A   Scattered Clouds
9:35 PM 53.6 °F - 33.8 °F 47% 30.35 in 10.0 mi ENE 3.5 mph - N/A   Partly Cloudy
9:55 PM 51.8 °F - 28.4 °F 41% 30.35 in 10.0 mi NE 3.5 mph - N/A   Clear
10:15 PM 51.8 °F - 30.2 °F 44% 30.37 in 10.0 mi SSE 3.5 mph - N/A   Clear
10:35 PM 48.2 °F - 32.0 °F 54% 30.37 in 10.0 mi ESE 6.9 mph - N/A   Clear
10:55 PM 46.4 °F - 30.2 °F 53% 30.38 in 10.0 mi Calm Calm - N/A   Clear
11:15 PM 46.4 °F 44.3 °F 30.2 °F 53% 30.38 in 10.0 mi SE 4.6 mph - N/A   Clear
11:35 PM 48.2 °F - 28.4 °F 46% 30.39 in 10.0 mi SE 4.6 mph - N/A   Clear
11:55 PM 44.6 °F 41.4 °F 30.2 °F 57% 30.39 in 10.0 mi SE 5.8 mph - N/A   Clear